STARLINK-32341, 61639

Orbit data source: Space-Track

STARLINK-32341, 61639 is a payload satellite owned by SpaceX/Seattle (US) in LEO that was launched on Wed, 23 Oct 2024 UTC via an FALCON 9 launch vehicle from the Air Force Eastern Test Range (AFETR). Payload-class satellites include a variety of spacecraft equipped with specific instruments for various scientific and technological missions. These include communications satellites like Starlink; space stations such as the ISS; scientific satellites like the Hubble; Earth observation satellites from companies like Planet Labs, Umbra, and HawkEye 360; GPS; miniature CubeSats for education and research; and military/defense satellites.

Loading next visibility...
Identifier
61639, 2024-191U
Orbit
LEO
Country
Flag of USUS
Related business
Manufacturer
SpaceX/Seattle
Mission
Operational Commercial Communications
Bus & Motor
STARLINK V2M, Unknown motor
Mass
730 kg wet, ~700 kg dry
Launch date (UTC)
2024-10-23 (2 years ago)
Launch vehicle
FALCON 9
Launch site
Air Force Eastern Test Range (AFETR)
Object type
Payload
Rocket body
Debris
Shape & HBR
Box + 2 Pan, 17.7 m
Radar Cross Section
33.884 m², Large (>1 m²)

Expand to show TLE details & history
Last TLE update: 6 hours ago

TLE from 6 hours ago
0 STARLINK-32341
1 61639U 24191U   26122.94704134 -.00002170  00000-0 -69396-4 0  9996
2 61639  42.9972 208.1472 0000322 171.8184 188.2673 15.27575697 85834
Epoch: 2026-05-02T22:43Z
TLE epoch observation values (Epoch: 2026-05-02T22:43:44.371Z)
Latitude
-0.00002°
Longitude
6.35466°
Altitude
483.056 km
Speed
7.626 km/s
True Right ascension
13h 52m 35s
True Declination
0° 00' 00"
Sunlit
Object was in full shadow at epoch
Visualization orbit readout
Latitude
Unknown
Longitude
Unknown
Altitude
Unknown
Speed
Unknown
Apparent Right ascension
Unknown
Apparent Declination
Unknown
Sunlit
N/A
Visualization observer readout
Local Sidereal Time
12:36:28
Azimuth
Unknown
Elevation
Unknown
Doppler factor
Unknown
Orbital elements
Apogee altitude
485.229 km
Perigee altitude
484.787 km
Semi-major axis
6,863.145 km
Eccentricity
0.00003
Inclination
42.9972°
RAAN
208.1472°
Arg. of periapsis
171.8184°
True anomaly
188.26677°
Mean anomaly
188.2673°
Eccentric anomaly
188.26703°
Mean motion
3.81732 °/min
Orbital period
94.31 mins
BSTAR
-0.000069396
Loading maneuver chart data...
Computing Atmospheric mass density...
Loading historical data...
Loading historical data...
Loading historical data...
Loading historical data...
Loading historical data...
Loading historical data...
Loading historical data...

Documentation

Showing up to 5 results
|